Temperature
19 19 18 18 18 18 17 17 17 17 16 16 15 15 15 15 15 15 15 14 14 14 14 13 13 13 14 14 14 14 14 15 15 16 16 16 16 16 16 16 16 16 15
19 19 18 18 18 18 18 18 17 17 16 15 15 15 15 15 15 15 15 14 14 13 13 13 13 13 13 13 13 14 14 14 15 16 16 16 16 16 16 16 15 15 15
19 19 18 18 18 18 18 18 17 17 16 15 15 15 15 15 15 15 15 14 14 14 13 13 13 13 13 13 13 13 13 14 14 15 15 15 15 16 16 15 15 15 15
19 19 18 18 18 18 17 17 17 17 16 16 15 15 15 15 15 15 15 14 14 14 13 13 13 13 13 13 13 13 13 13 14 14 14 14 15 15 15 15 15 15 15
18 18 18 18 17 17 17 17 16 16 16 16 16 15 15 15 14 15 15 14 14 14 14 14 13 13 13 12 12 12 12 12 12 13 13 14 14 15 15 15 14 14 14
18 18 17 17 17 17 17 16 16 16 16 16 16 15 15 15 14 14 15 15 14 14 14 14 13 13 13 12 12 12 12 12 12 12 13 13 13 13 14 13 13 13 13
17 17 17 17 17 17 16 16 16 16 16 15 15 15 15 15 15 14 14 14 14 14 14 14 14 13 13 13 12 12 12 12 12 12 12 12 12 13 13 13 13 13 14
15 15 15 15 16 15 15 15 15 15 15 15 15 15 15 15 15 14 14 14 14 14 14 14 14 13 13 13 13 12 12 12 12 12 12 12 12 13 13 13 13 13 13
14 14 14 14 14 14 14 14 14 14 14 14 14 14 14 14 14 14 14 14 14 14 14 14 14 13 13 13 13 13 12 12 12 12 12 12 12 13 13 13 13 13 13
12 12 12 12 13 13 13 13 13 12 12 13 13 13 14 14 14 14 14 14 14 13 13 13 13 13 13 13 13 13 13 13 13 12 12 12 12 12 13 13 13 13 13
12 12 12 12 12 12 11 11 11 11 11 11 12 12 12 13 13 13 13 13 13 13 13 13 13 13 13 13 13 13 13 13 13 13 13 13 13 13 13 13 13 13 13
12 12 11 12 12 11 11 11 11 11 11 11 11 11 11 12 12 12 12 12 12 12 12 13 13 13 13 13 13 13 13 13 12 12 12 13 13 13 13 13 12 12 12
12 12 12 12 12 12 11 11 11 11 11 11 11 11 11 11 11 11 12 11 11 11 12 12 12 12 12 12 12 13 12 12 12 12 12 12 12 12 12 12 11 11 11
12 12 12 12 12 11 11 11 11 11 11 11 11 11 11 11 11 11 11 11 11 11 11 11 11 12 12 12 12 12 12 12 12 12 12 11 11 11 11 11 11 11 11
13 12 12 12 11 11 11 11 11 11 10 10 10 10 10 11 11 11 11 11 10 10 10 11 11 11 11 11 11 11 11 11 11 11 11 11 11 10 10 10 10 10 11
13 12 12 11 11 11 11 11 11 10 10 10 10 10 10 10 11 11 10 10 10 10 10 10 11 11 11 11 11 11 11 11 11 11 10 10 10 10 10 10 10 10 10
13 12 12 12 11 11 11 11 11 10 10 9 9 10 10 10 10 10 10 10 10 10 10 10 10 11 11 11 11 11 11 11 11 11 10 10 10 10 10 10 10 10 10
13 12 12 12 12 11 11 11 11 10 10 9 9 9 10 10 10 10 10 10 10 10 10 10 10 10 10 10 10 10 10 10 10 10 10 10 10 10 10 10 9 9 9
13 13 12 12 12 11 11 11 10 10 10 9 9 9 10 10 10 10 10 10 10 10 10 10 10 10 10 10 10 10 10 10 10 9 9 9 9 9 9 9 9 9 9
13 13 12 12 12 11 11 11 10 10 10 9 9 9 9 10 10 10 10 10 10 10 10 10 9 9 9 9 9 9 9 9 9 9 9 9 9 9 9 9 9 9 9
14 13 12 12 12 11 11 11 10 10 10 10 9 9 9 10 10 10 10 10 10 9 9 9 9 9 9 9 9 9 9 9 9 9 9 9 9 9 9 9 8 8 8
14 13 12 12 11 11 11 11 11 10 10 10 10 9 9 9 9 9 9 9 9 9 9 9 8 8 8 8 8 8 8 8 8 8 8 8 9 9 9 8 8 8 8
14 13 12 12 11 11 11 11 11 10 10 10 10 9 9 9 9 9 8 8 8 8 8 8 8 8 8 8 8 8 8 8 8 8 8 8 8 8 8 8 8 8 8
14 13 12 11 11 11 11 11 11 10 10 10 9 9 9 9 8 8 8 7 7 7 7 7 7 7 7 7 7 7 8 8 8 8 8 8 8 8 8 8 7 7 7
14 13 12 11 11 11 11 11 10 10 10 9 9 9 9 8 8 8 7 7 7 7 7 7 7 8 8 7 7 7 7 7 7 7 7 7 7 7 7 7 7 7 6
13 12 12 11 11 11 11 11 10 10 10 9 9 9 8 8 8 8 7 7 7 7 7 8 8 8 8 7 7 7 7 7 7 7 7 6 6 6 6 6 6 5 5
Wind_Speed
6 4 4 5 5 5 5 5 6 5 6 7 6 5 5 5 5 5 5 4 5 5 5 6 8 8 7 6 6 5 6 5 6 4 3 4 7 7 8 12 14 13 13
5 4 3 3 3 4 5 5 5 6 6 7 7 6 6 6 5 5 5 5 5 5 6 6 7 7 8 7 7 6 5 5 5 4 4 3 5 7 7 6 8 11 13
5 5 3 3 4 5 6 6 5 6 7 7 7 7 7 7 6 6 5 5 5 6 5 6 6 6 6 6 7 7 5 4 3 3 3 2 2 3 4 4 4 5 9
5 4 3 4 6 7 7 6 6 6 7 8 7 8 8 8 7 7 6 5 5 5 4 4 5 6 6 7 7 8 7 5 3 3 3 2 2 2 3 4 4 5 5
5 5 6 6 6 7 7 7 7 6 7 7 7 7 7 7 8 8 7 6 6 5 4 4 5 7 9 7 5 6 6 5 4 3 3 3 3 3 5 5 6 4 4
2 4 5 5 5 6 7 7 7 6 6 5 5 6 7 7 11 14 10 7 7 6 6 5 5 7 10 11 10 10 9 6 5 4 2 2 3 3 4 5 5 4 4
8 6 5 2 1 2 2 2 4 4 4 5 5 6 6 8 11 13 14 8 7 7 7 6 5 7 10 7 10 13 12 12 10 6 5 5 5 5 5 7 8 8 8
9 9 9 9 7 6 5 5 4 3 2 3 4 4 4 6 9 10 12 8 7 7 7 7 7 7 7 9 8 9 9 10 12 9 7 8 8 7 8 9 9 9 4
8 8 7 7 7 7 7 6 5 4 4 2 2 1 1 3 6 9 8 5 5 6 5 5 6 7 11 12 9 8 7 8 11 13 13 14 15 15 11 6 6 6 6
6 6 6 6 6 6 6 5 4 4 4 4 5 4 2 2 3 5 7 3 4 4 3 4 5 6 9 10 9 8 8 7 7 8 9 10 8 6 7 7 6 6 4
5 6 5 5 5 5 5 5 5 5 6 6 6 5 5 5 5 3 3 3 4 4 4 4 4 6 8 8 10 8 9 6 5 6 5 4 2 1 1 2 4 5 6
5 6 4 5 5 5 6 6 6 6 7 6 6 6 5 6 6 6 4 2 4 4 4 4 5 6 6 5 6 7 9 8 5 4 3 2 1 0 0 1 1 1 2
5 4 3 4 5 5 6 6 6 6 5 5 5 6 6 6 7 11 9 5 3 3 4 7 8 7 5 4 6 8 8 6 5 4 3 2 1 1 2 1 1 1 1
3 1 1 2 2 4 4 4 4 5 5 5 6 6 6 5 5 6 6 4 3 2 3 3 0 5 6 6 6 5 4 4 4 4 3 2 1 1 1 1 1 0 1
3 1 1 2 2 2 3 4 3 3 3 3 4 5 6 6 8 9 5 3 2 3 2 1 2 3 4 4 4 4 3 4 3 3 3 2 2 2 2 2 2 2 2
3 2 2 2 3 2 1 1 3 1 3 4 5 5 4 5 9 7 4 1 3 4 1 2 2 3 4 4 4 3 3 3 3 3 2 2 3 3 3 3 3 3 4
5 3 2 2 2 3 2 1 1 1 2 2 4 5 5 6 6 6 5 4 6 7 2 3 3 3 3 4 3 3 2 2 3 3 2 2 3 3 3 2 2 2 3
5 4 3 1 1 1 1 1 1 1 2 1 3 4 6 6 6 5 5 3 4 5 4 5 5 4 4 4 3 2 2 2 2 2 1 1 2 2 2 2 2 2 3
6 4 3 1 1 1 1 2 2 3 2 2 3 4 8 7 9 10 6 4 3 4 4 5 5 4 4 4 3 4 4 4 3 3 2 2 2 1 2 3 3 5 4
5 7 5 1 0 1 2 1 2 3 3 3 3 4 5 5 6 7 6 6 5 5 5 5 5 5 5 5 5 5 5 5 4 3 1 1 2 2 3 4 4 4 4
5 5 5 3 2 2 2 1 2 3 3 3 3 4 4 4 5 6 6 6 6 5 5 5 5 6 6 5 5 5 4 3 2 2 1 2 2 2 3 3 4 4 4
6 5 4 3 3 3 3 3 3 3 2 3 3 4 8 5 5 5 5 5 6 6 6 6 6 6 6 6 5 5 4 4 5 5 4 4 3 3 3 3 4 4 4
6 5 4 3 3 3 4 4 4 4 3 2 3 4 4 4 5 5 5 5 5 6 6 6 7 6 5 6 5 4 3 4 4 5 5 5 3 3 3 3 4 4 3
6 6 5 4 3 3 4 4 4 4 3 3 2 2 2 3 4 5 4 4 5 5 5 6 5 6 7 6 6 6 5 6 7 5 6 4 3 3 3 3 3 4 4
6 6 5 5 4 4 5 4 4 4 4 3 3 2 3 3 3 4 4 4 5 6 7 7 6 6 7 8 8 8 10 9 7 6 5 3 4 4 4 4 4 4 4
6 5 4 4 4 5 5 5 5 5 4 3 3 3 3 4 3 4 4 5 5 5 5 6 8 9 10 9 10 12 12 13 13 12 9 5 6 6 5 5 6 5 6
Wind_Direction
177 165 144 140 151 163 171 174 175 179 178 181 191 209 223 211 188 174 175 185 214 233 225 212 218 210 206 196 187 187 195 192 209 223 196 190 177 179 178 187 195 199 201
170 144 152 161 167 189 204 199 189 197 201 196 191 195 207 210 206 199 197 195 213 233 234 224 223 214 202 191 185 179 178 184 185 192 192 182 188 186 170 176 186 197 202
161 157 173 201 211 221 229 223 205 203 211 210 196 196 202 208 217 222 216 219 231 241 238 226 219 201 192 181 178 175 168 163 155 164 185 184 182 168 160 179 189 201 210
166 166 198 230 236 239 240 241 235 217 214 217 213 210 205 206 214 225 221 228 244 255 249 222 201 188 178 169 173 172 164 153 145 139 150 175 187 158 157 177 202 215 220
174 184 210 231 245 246 242 238 242 236 230 227 223 224 213 201 208 210 211 215 225 240 243 217 191 185 181 176 168 169 165 159 153 147 159 172 177 162 196 191 207 210 233
167 215 224 230 244 252 250 238 233 237 237 231 228 224 213 212 212 206 202 202 205 211 219 222 218 215 214 211 200 186 177 171 171 161 157 199 211 214 206 196 198 192 243
48 34 12 342 334 321 290 268 260 257 250 239 223 210 214 221 222 215 209 197 199 207 208 210 224 228 225 220 223 215 203 196 191 178 189 214 221 220 218 210 205 209 223
52 48 44 48 47 39 42 33 7 349 299 251 243 226 225 242 236 219 205 195 206 217 216 212 222 241 226 212 211 213 212 209 206 206 212 225 233 232 230 227 222 226 237
52 49 47 51 49 41 36 26 16 22 23 0 317 314 260 280 251 216 189 178 205 227 232 224 222 237 247 220 200 207 213 218 216 220 229 241 248 251 243 226 206 201 228
37 46 52 56 54 42 30 20 10 15 20 30 40 42 43 352 306 225 198 182 214 244 264 268 262 252 248 221 196 199 210 217 204 212 228 238 239 250 233 212 206 205 214
32 49 51 48 49 37 29 25 24 27 33 35 37 27 21 7 356 325 226 196 222 244 257 268 280 286 258 225 192 195 204 185 168 164 157 155 160 191 255 222 210 209 217
54 61 52 40 36 38 40 34 31 36 38 28 24 16 6 2 9 3 354 258 219 224 244 250 262 267 240 201 183 189 171 144 127 127 130 140 151 174 66 99 139 154 188
71 67 41 41 44 46 51 45 36 31 32 22 22 16 0 360 6 8 359 335 269 237 260 267 265 246 194 170 162 150 139 134 136 137 140 146 157 154 127 98 55 42 345
92 108 14 25 29 33 40 43 46 31 22 22 19 7 352 348 354 353 343 339 337 311 298 314 95 139 130 125 121 114 121 147 145 142 141 139 122 126 157 169 177 248 303
127 183 265 302 312 341 32 44 41 38 17 14 5 351 347 344 337 330 312 295 291 285 274 188 143 149 148 135 118 120 128 129 125 120 124 144 179 207 224 214 203 206 233
168 211 262 285 299 306 307 18 52 32 359 360 353 352 342 338 344 5 16 360 340 335 263 165 160 155 147 145 142 135 133 140 145 145 156 181 205 218 228 224 217 221 239
176 204 240 291 313 328 330 284 299 332 302 339 4 3 3 357 10 17 18 2 345 350 55 102 111 114 120 135 141 142 156 167 155 155 180 211 224 229 224 230 233 246 266
168 188 194 240 302 0 26 57 80 63 28 345 317 320 336 353 10 11 7 8 358 5 37 65 77 88 101 112 118 107 92 92 95 88 72 23 355 333 312 297 290 276 279
165 179 194 234 315 56 109 84 59 49 41 16 355 343 351 18 40 39 40 43 43 44 57 71 77 82 85 88 87 81 75 70 64 60 38 4 336 315 289 279 273 270 261
171 178 167 163 66 104 129 82 68 68 60 44 23 353 350 34 48 36 37 43 51 52 55 64 64 65 61 58 58 64 68 67 68 70 50 345 307 271 266 262 251 248 246
171 172 159 125 121 126 140 147 122 103 78 43 13 9 56 72 65 55 48 44 46 48 51 59 61 57 51 52 58 65 72 70 63 40 347 313 314 305 292 278 271 265 264
165 160 155 149 134 120 127 139 141 127 102 55 31 49 75 78 77 73 65 56 47 44 42 52 59 56 47 41 39 41 36 23 6 349 331 316 310 304 300 295 290 286 283
159 162 158 152 145 130 120 122 132 136 127 97 78 76 77 84 86 85 79 69 61 55 52 56 58 52 45 39 34 30 15 346 326 317 315 310 308 311 315 318 318 316 313
150 154 157 156 147 131 128 126 130 140 144 131 114 108 108 112 105 99 90 80 76 72 68 67 63 51 35 24 13 1 344 327 314 304 308 314 324 336 346 358 359 358 351
142 147 153 158 155 147 143 141 137 138 141 141 133 122 114 112 109 102 85 73 78 81 76 64 49 35 24 16 7 358 354 359 360 347 334 345 10 16 18 19 12 1 351
144 145 148 153 157 158 154 154 152 149 149 145 134 124 116 112 110 102 87 75 75 75 72 58 42 33 23 15 10 16 30 40 44 46 46 45 47 43 38 36 28 18 2
Height
1492 1494 1495 1497 1499 1500 1501 1502 1502 1503 1503 1503 1502 1502 1501 1500 1498 1498 1498 1498 1499 1500 1501 1502 1503 1505 1508 1511 1513 1516 1518 1521 1522 1524 1526 1528 1530 1532 1533 1535 1535 1536 1537
1492 1494 1496 1498 1499 1500 1500 1500 1500 1501 1501 1502 1501 1501 1500 1499 1498 1497 1497 1496 1496 1496 1496 1496 1497 1499 1501 1504 1507 1510 1513 1516 1518 1519 1521 1524 1526 1528 1529 1531 1532 1532 1533
1493 1495 1496 1498 1499 1499 1499 1499 1499 1499 1499 1500 1500 1499 1499 1498 1498 1497 1496 1495 1494 1493 1492 1492 1493 1495 1496 1499 1501 1504 1507 1510 1513 1515 1517 1520 1522 1523 1525 1526 1528 1529 1530
1492 1494 1495 1496 1497 1497 1498 1498 1498 1497 1497 1497 1497 1497 1497 1497 1497 1496 1495 1494 1493 1492 1491 1490 1491 1492 1494 1496 1497 1499 1501 1504 1507 1509 1512 1515 1517 1518 1520 1521 1523 1525 1526
1491 1493 1493 1493 1494 1494 1494 1495 1495 1494 1494 1495 1495 1495 1495 1495 1495 1495 1495 1494 1493 1493 1491 1491 1491 1491 1492 1494 1495 1496 1497 1498 1501 1504 1507 1510 1512 1513 1515 1518 1519 1521 1521
1490 1490 1490 1490 1491 1490 1490 1490 1490 1489 1490 1491 1492 1492 1492 1493 1493 1494 1494 1494 1493 1493 1492 1491 1491 1491 1492 1492 1493 1494 1495 1496 1497 1499 1501 1504 1507 1509 1511 1514 1515 1516 1516
1487 1487 1486 1486 1487 1487 1486 1485 1485 1485 1486 1487 1488 1488 1488 1489 1489 1490 1491 1492 1492 1492 1492 1491 1491 1491 1491 1491 1491 1492 1493 1493 1495 1496 1498 1500 1503 1505 1507 1509 1510 1510 1511
1487 1486 1485 1484 1483 1483 1482 1482 1482 1482 1482 1483 1483 1484 1485 1485 1486 1487 1488 1489 1489 1489 1490 1490 1489 1490 1490 1490 1490 1490 1490 1491 1491 1493 1495 1497 1499 1501 1502 1504 1505 1506 1507
1487 1486 1484 1483 1482 1481 1481 1480 1480 1480 1479 1479 1479 1480 1480 1481 1482 1483 1484 1484 1485 1486 1487 1487 1487 1488 1488 1489 1489 1489 1489 1489 1490 1490 1492 1494 1496 1497 1499 1500 1501 1501 1501
1488 1487 1485 1484 1482 1481 1480 1480 1479 1478 1477 1477 1476 1477 1477 1477 1478 1479 1479 1480 1481 1482 1483 1483 1484 1484 1485 1486 1486 1487 1487 1488 1489 1489 1490 1491 1492 1493 1495 1497 1497 1497 1497
1491 1490 1488 1486 1484 1482 1481 1480 1479 1478 1477 1476 1475 1475 1474 1474 1475 1475 1476 1476 1477 1477 1478 1478 1479 1480 1481 1482 1483 1484 1485 1486 1487 1488 1488 1489 1490 1491 1492 1492 1493 1493 1494
1493 1492 1490 1487 1485 1484 1482 1481 1480 1480 1478 1477 1476 1475 1474 1473 1473 1473 1473 1473 1472 1472 1472 1473 1474 1475 1477 1478 1480 1480 1482 1483 1484 1485 1487 1487 1488 1489 1489 1489 1489 1489 1490
1495 1494 1491 1489 1487 1485 1484 1483 1482 1481 1479 1478 1476 1474 1473 1473 1472 1471 1471 1470 1469 1469 1469 1469 1470 1471 1472 1474 1476 1477 1479 1480 1482 1483 1484 1485 1485 1486 1486 1486 1487 1487 1487
1497 1495 1493 1491 1489 1487 1486 1485 1484 1482 1481 1478 1476 1474 1473 1472 1470 1469 1468 1468 1467 1466 1466 1466 1466 1467 1469 1471 1473 1474 1477 1479 1480 1481 1481 1482 1483 1484 1485 1485 1485 1486 1485
1498 1496 1495 1493 1491 1489 1488 1486 1485 1483 1481 1479 1476 1474 1472 1470 1469 1467 1466 1465 1464 1464 1463 1464 1464 1466 1467 1469 1470 1473 1475 1477 1478 1479 1480 1481 1482 1483 1483 1484 1484 1483 1483
1498 1497 1495 1493 1491 1490 1488 1487 1485 1484 1481 1479 1477 1475 1473 1471 1469 1466 1465 1464 1462 1461 1461 1462 1463 1465 1466 1468 1470 1473 1475 1476 1477 1478 1479 1480 1480 1481 1481 1481 1481 1480 1479
1498 1496 1495 1494 1492 1490 1489 1487 1486 1484 1482 1481 1479 1477 1475 1473 1470 1468 1466 1464 1463 1460 1459 1461 1463 1464 1466 1468 1471 1473 1474 1475 1476 1477 1478 1478 1479 1478 1478 1478 1477 1477 1476
1497 1496 1495 1494 1493 1491 1490 1488 1486 1485 1484 1482 1481 1479 1477 1475 1473 1470 1468 1467 1465 1463 1462 1462 1463 1465 1466 1469 1471 1472 1473 1474 1475 1476 1476 1476 1476 1476 1475 1475 1474 1474 1473
1496 1495 1494 1494 1493 1492 1491 1489 1487 1486 1485 1483 1482 1480 1479 1478 1476 1474 1472 1471 1470 1468 1467 1467 1468 1469 1470 1471 1472 1473 1474 1474 1475 1475 1475 1475 1474 1473 1473 1472 1471 1470 1469
1494 1493 1493 1493 1493 1493 1492 1490 1489 1487 1486 1484 1482 1481 1481 1480 1478 1477 1476 1475 1474 1473 1473 1472 1472 1473 1473 1473 1474 1474 1474 1475 1475 1475 1474 1473 1472 1471 1470 1468 1467 1466 1465
1493 1492 1492 1493 1493 1492 1492 1491 1490 1489 1487 1486 1484 1483 1483 1482 1480 1480 1479 1478 1477 1476 1475 1475 1475 1475 1474 1474 1474 1474 1474 1474 1474 1473 1472 1470 1469 1467 1466 1465 1464 1462 1461
1492 1492 1492 1492 1492 1492 1492 1491 1491 1490 1489 1488 1487 1486 1485 1484 1483 1482 1481 1480 1479 1478 1477 1477 1476 1476 1475 1475 1474 1474 1473 1472 1471 1470 1469 1468 1466 1465 1463 1461 1460 1458 1456
1492 1491 1491 1491 1491 1492 1492 1492 1491 1491 1490 1490 1489 1488 1487 1486 1485 1483 1482 1481 1480 1479 1478 1478 1477 1476 1475 1474 1473 1472 1471 1470 1469 1468 1466 1465 1464 1462 1460 1458 1456 1454 1452
1491 1491 1491 1491 1491 1491 1492 1491 1491 1491 1491 1491 1490 1490 1489 1488 1486 1485 1483 1482 1480 1479 1478 1477 1476 1475 1473 1472 1470 1468 1467 1466 1465 1464 1464 1462 1461 1459 1458 1455 1453 1451 1449
1490 1490 1490 1490 1490 1491 1491 1491 1492 1492 1492 1491 1491 1490 1490 1489 1487 1486 1484 1483 1481 1479 1478 1477 1475 1473 1471 1469 1468 1466 1464 1463 1462 1461 1460 1460 1458 1457 1455 1453 1451 1450 1448
1489 1489 1489 1489 1490 1490 1491 1491 1492 1492 1492 1492 1491 1491 1490 1489 1488 1487 1485 1483 1482 1480 1478 1476 1475 1473 1472 1470 1468 1466 1465 1463 1461 1460 1458 1457 1456 1455 1453 1451 1450 1448 1447